Time,TemperatureF,DewpointF,PressureIn,WindDirection,WindDirectionDegrees,WindSpeedMPH,WindSpeedGustMPH,Humidity,HourlyPrecipIn,Conditions,Clouds,dailyrainin,SoftwareType,DateUTC
2013-01-03 00:03:00,13.1,7.0,30.26,SSW,203,0.0,5.0,78,0.00,,,0.00,weatherlink.com 1.10,2013-01-03 05:03:00,
2013-01-03 00:19:00,13.4,7.0,30.26,SSW,207,3.0,5.0,76,0.00,,,0.00,weatherlink.com 1.10,2013-01-03 05:19:00,
2013-01-03 00:34:00,13.7,8.0,30.25,SW,217,3.0,7.0,77,0.00,,,0.00,weatherlink.com 1.10,2013-01-03 05:34:00,
2013-01-03 00:51:00,14.4,8.0,30.25,SSW,209,4.0,9.0,76,0.00,,,0.00,weatherlink.com 1.10,2013-01-03 05:51:00,
2013-01-03 01:04:00,14.9,9.0,30.24,SSW,207,6.0,7.0,76,0.00,,,0.00,weatherlink.com 1.10,2013-01-03 06:04:00,
2013-01-03 01:21:00,15.5,9.0,30.24,South,186,3.0,8.0,75,0.00,,,0.00,weatherlink.com 1.10,2013-01-03 06:21:00,
2013-01-03 01:37:00,15.5,9.0,30.24,SW,228,4.0,10.0,75,0.00,,,0.00,weatherlink.com 1.10,2013-01-03 06:37:00,
2013-01-03 01:51:00,15.7,9.0,30.24,SSW,198,3.0,10.0,75,0.00,,,0.00,weatherlink.com 1.10,2013-01-03 06:51:00,
2013-01-03 02:07:00,15.8,9.0,30.24,SSW,213,6.0,8.0,75,0.00,,,0.00,weatherlink.com 1.10,2013-01-03 07:07:00,
2013-01-03 02:22:00,15.8,9.0,30.24,SW,214,4.0,7.0,74,0.00,,,0.00,weatherlink.com 1.10,2013-01-03 07:22:00,
2013-01-03 02:37:00,15.8,9.0,30.24,SSW,193,5.0,8.0,75,0.00,,,0.00,weatherlink.com 1.10,2013-01-03 07:37:00,
2013-01-03 02:52:00,16.0,9.0,30.24,SSW,205,4.0,9.0,73,0.00,,,0.00,weatherlink.com 1.10,2013-01-03 07:52:00,
2013-01-03 03:06:00,16.2,9.0,30.24,SSW,208,6.0,8.0,73,0.00,,,0.00,weatherlink.com 1.10,2013-01-03 08:06:00,
2013-01-03 03:22:00,16.2,8.0,30.24,SSW,207,4.0,10.0,71,0.00,,,0.00,weatherlink.com 1.10,2013-01-03 08:22:00,
2013-01-03 03:37:00,16.2,8.0,30.24,SW,225,3.0,8.0,70,0.00,,,0.00,weatherlink.com 1.10,2013-01-03 08:37:00,
2013-01-03 03:53:00,15.9,8.0,30.24,SSW,211,3.0,5.0,70,0.00,,,0.00,weatherlink.com 1.10,2013-01-03 08:53:00,
2013-01-03 04:07:00,15.5,7.0,30.24,SW,220,2.0,6.0,70,0.00,,,0.00,weatherlink.com 1.10,2013-01-03 09:07:00,
2013-01-03 04:24:00,14.7,8.0,30.24,SSW,207,3.0,5.0,73,0.00,,,0.00,weatherlink.com 1.10,2013-01-03 09:24:00,
2013-01-03 04:38:00,14.6,7.0,30.23,SSW,204,5.0,6.0,73,0.00,,,0.00,weatherlink.com 1.10,2013-01-03 09:38:00,
2013-01-03 04:53:00,14.5,8.0,30.23,SW,222,4.0,7.0,74,0.00,,,0.00,weatherlink.com 1.10,2013-01-03 09:53:00,
2013-01-03 05:09:00,15.2,8.0,30.23,SW,219,3.0,8.0,72,0.00,,,0.00,weatherlink.com 1.10,2013-01-03 10:09:00,
2013-01-03 05:26:00,16.2,8.0,30.23,SSW,211,5.0,8.0,69,0.00,,,0.00,weatherlink.com 1.10,2013-01-03 10:26:00,
2013-01-03 05:41:00,16.9,8.0,30.23,SW,220,3.0,8.0,67,0.00,,,0.00,weatherlink.com 1.10,2013-01-03 10:41:00,
2013-01-03 05:54:00,17.5,8.0,30.23,SSW,212,6.0,7.0,67,0.00,,,0.00,weatherlink.com 1.10,2013-01-03 10:54:00,
2013-01-03 06:10:00,18.4,8.0,30.23,SSW,200,6.0,8.0,65,0.00,,,0.00,weatherlink.com 1.10,2013-01-03 11:10:00,
2013-01-03 06:26:00,18.8,8.0,30.24,SW,228,6.0,9.0,64,0.00,,,0.00,weatherlink.com 1.10,2013-01-03 11:26:00,
2013-01-03 06:42:00,19.1,9.0,30.24,SSW,213,5.0,8.0,64,0.00,,,0.00,weatherlink.com 1.10,2013-01-03 11:42:00,
2013-01-03 06:56:00,19.5,9.0,30.24,WSW,239,3.0,9.0,63,0.00,,,0.00,weatherlink.com 1.10,2013-01-03 11:56:00,
2013-01-03 07:12:00,19.7,9.0,30.24,West,267,3.0,10.0,64,0.00,,,0.00,weatherlink.com 1.10,2013-01-03 12:12:00,
2013-01-03 07:27:00,19.9,10.0,30.23,SW,235,6.0,10.0,66,0.00,,,0.00,weatherlink.com 1.10,2013-01-03 12:27:00,
2013-01-03 07:42:00,20.1,11.0,30.23,SW,224,5.0,11.0,67,0.00,,,0.00,weatherlink.com 1.10,2013-01-03 12:42:00,
2013-01-03 07:56:00,20.0,11.0,30.23,SW,233,5.0,11.0,68,0.00,,,0.00,weatherlink.com 1.10,2013-01-03 12:56:00,
2013-01-03 08:14:00,19.7,11.0,30.23,WSW,242,3.0,11.0,69,0.00,,,0.00,weatherlink.com 1.10,2013-01-03 13:14:00,
2013-01-03 08:27:00,19.5,11.0,30.23,SW,227,2.0,10.0,70,0.00,,,0.00,weatherlink.com 1.10,2013-01-03 13:27:00,
2013-01-03 08:42:00,19.9,12.0,30.23,SW,214,2.0,8.0,72,0.00,,,0.00,weatherlink.com 1.10,2013-01-03 13:42:00,
2013-01-03 08:58:00,19.7,12.0,30.22,SSW,207,5.0,10.0,72,0.00,,,0.00,weatherlink.com 1.10,2013-01-03 13:58:00,
2013-01-03 09:13:00,19.8,13.0,30.23,SW,221,6.0,9.0,74,0.00,,,0.00,weatherlink.com 1.10,2013-01-03 14:13:00,
2013-01-03 09:29:00,20.4,13.0,30.24,WSW,246,2.0,10.0,74,0.00,,,0.00,weatherlink.com 1.10,2013-01-03 14:29:00,
2013-01-03 09:43:00,20.9,14.0,30.24,WSW,243,5.0,10.0,75,0.00,,,0.00,weatherlink.com 1.10,2013-01-03 14:43:00,
2013-01-03 09:58:00,21.3,15.0,30.25,WSW,247,3.0,11.0,77,0.00,,,0.00,weatherlink.com 1.10,2013-01-03 14:58:00,
2013-01-03 10:16:00,21.9,16.0,30.26,WSW,245,5.0,11.0,78,0.00,,,0.00,weatherlink.com 1.10,2013-01-03 15:16:00,
2013-01-03 10:29:00,22.4,17.0,30.26,WSW,244,7.0,9.0,81,0.00,,,0.00,weatherlink.com 1.10,2013-01-03 15:29:00,
2013-01-03 10:44:00,23.0,18.0,30.26,SW,231,7.0,12.0,81,0.00,,,0.00,weatherlink.com 1.10,2013-01-03 15:44:00,
2013-01-03 11:02:00,23.1,18.0,30.27,WSW,248,5.0,11.0,81,0.00,,,0.00,weatherlink.com 1.10,2013-01-03 16:02:00,
2013-01-03 11:15:00,23.3,18.0,30.26,WSW,250,11.0,11.0,81,0.00,,,0.00,weatherlink.com 1.10,2013-01-03 16:15:00,
2013-01-03 11:31:00,23.9,19.0,30.26,WSW,240,6.0,10.0,81,0.00,,,0.00,weatherlink.com 1.10,2013-01-03 16:31:00,
2013-01-03 11:46:00,24.5,20.0,30.25,WSW,237,3.0,10.0,82,0.00,,,0.00,weatherlink.com 1.10,2013-01-03 16:46:00,
2013-01-03 12:01:00,25.3,21.0,30.26,WSW,240,6.0,9.0,82,0.00,,,0.00,weatherlink.com 1.10,2013-01-03 17:01:00,
2013-01-03 12:18:00,25.3,21.0,30.25,WSW,245,4.0,13.0,83,0.00,,,0.00,weatherlink.com 1.10,2013-01-03 17:18:00,
2013-01-03 12:32:00,25.6,21.0,30.24,West,265,5.0,12.0,83,0.00,,,0.00,weatherlink.com 1.10,2013-01-03 17:32:00,
2013-01-03 12:47:00,26.2,22.0,30.24,WSW,256,7.0,10.0,83,0.00,,,0.00,weatherlink.com 1.10,2013-01-03 17:47:00,
2013-01-03 13:02:00,26.6,22.0,30.24,WSW,243,3.0,10.0,83,0.00,,,0.00,weatherlink.com 1.10,2013-01-03 18:02:00,
2013-01-03 13:17:00,27.3,23.0,30.24,WSW,244,9.0,12.0,83,0.00,,,0.00,weatherlink.com 1.10,2013-01-03 18:17:00,
2013-01-03 13:33:00,28.0,24.0,30.23,WSW,240,7.0,13.0,83,0.00,,,0.00,weatherlink.com 1.10,2013-01-03 18:33:00,
2013-01-03 13:47:00,28.1,23.0,30.23,SW,229,4.0,14.0,82,0.00,,,0.00,weatherlink.com 1.10,2013-01-03 18:47:00,
2013-01-03 14:04:00,27.8,23.0,30.23,SW,230,12.0,12.0,82,0.00,,,0.00,weatherlink.com 1.10,2013-01-03 19:04:00,
2013-01-03 14:18:00,27.9,23.0,30.23,WSW,253,6.0,14.0,83,0.00,,,0.00,weatherlink.com 1.10,2013-01-03 19:18:00,
2013-01-03 15:04:00,29.1,25.0,30.25,WSW,249,5.0,12.0,83,0.00,,,0.00,weatherlink.com 1.10,2013-01-03 20:04:00,
2013-01-03 15:19:00,29.4,25.0,30.25,WSW,254,14.0,19.0,83,0.00,,,0.00,weatherlink.com 1.10,2013-01-03 20:19:00,
2013-01-03 15:35:00,29.4,25.0,30.25,WNW,290,8.0,12.0,84,0.00,,,0.00,weatherlink.com 1.10,2013-01-03 20:35:00,
2013-01-03 15:49:00,29.3,25.0,30.25,WSW,255,5.0,13.0,84,0.00,,,0.00,weatherlink.com 1.10,2013-01-03 20:49:00,
2013-01-03 16:19:00,29.3,25.0,30.27,SW,232,4.0,12.0,85,0.00,,,0.00,weatherlink.com 1.10,2013-01-03 21:19:00,
2013-01-03 16:35:00,29.1,25.0,30.26,WSW,242,4.0,10.0,85,0.00,,,0.00,weatherlink.com 1.10,2013-01-03 21:35:00,
2013-01-03 16:50:00,29.2,26.0,30.27,SSW,213,3.0,9.0,86,0.00,,,0.00,weatherlink.com 1.10,2013-01-03 21:50:00,
2013-01-03 17:07:00,29.3,26.0,30.27,SW,228,9.0,12.0,86,0.00,,,0.00,weatherlink.com 1.10,2013-01-03 22:07:00,
2013-01-03 17:21:00,29.5,26.0,30.27,SW,234,6.0,13.0,86,0.00,,,0.00,weatherlink.com 1.10,2013-01-03 22:21:00,
2013-01-03 17:36:00,29.6,26.0,30.28,WSW,249,5.0,15.0,85,0.00,,,0.00,weatherlink.com 1.10,2013-01-03 22:36:00,
2013-01-03 17:51:00,29.6,26.0,30.28,West,262,8.0,14.0,86,0.00,,,0.00,weatherlink.com 1.10,2013-01-03 22:51:00,
2013-01-03 18:08:00,29.6,26.0,30.28,West,260,11.0,15.0,86,0.00,,,0.00,weatherlink.com 1.10,2013-01-03 23:08:00,
2013-01-03 18:21:00,29.6,26.0,30.28,West,265,4.0,13.0,86,0.00,,,0.00,weatherlink.com 1.10,2013-01-03 23:21:00,
2013-01-03 18:36:00,29.7,26.0,30.29,WSW,245,12.0,15.0,85,0.00,,,0.00,weatherlink.com 1.10,2013-01-03 23:36:00,
2013-01-03 18:52:00,29.7,26.0,30.29,West,281,5.0,13.0,85,0.00,,,0.00,weatherlink.com 1.10,2013-01-03 23:52:00,
2013-01-03 19:09:00,29.7,25.0,30.30,WSW,250,5.0,13.0,84,0.00,,,0.00,weatherlink.com 1.10,2013-01-04 00:09:00,
2013-01-03 19:23:00,30.0,25.0,30.30,West,269,11.0,14.0,81,0.00,,,0.00,weatherlink.com 1.10,2013-01-04 00:23:00,
2013-01-03 19:38:00,29.9,25.0,30.30,SW,236,6.0,14.0,81,0.00,,,0.00,weatherlink.com 1.10,2013-01-04 00:38:00,
2013-01-03 19:52:00,30.0,25.0,30.30,WSW,247,5.0,15.0,80,0.00,,,0.00,weatherlink.com 1.10,2013-01-04 00:52:00,
2013-01-03 20:08:00,29.9,24.0,30.30,West,279,6.0,14.0,78,0.00,,,0.00,weatherlink.com 1.10,2013-01-04 01:08:00,
2013-01-03 20:23:00,29.8,23.0,30.31,SW,225,8.0,17.0,77,0.00,,,0.00,weatherlink.com 1.10,2013-01-04 01:23:00,
2013-01-03 20:39:00,29.7,24.0,30.31,WNW,293,8.0,13.0,78,0.00,,,0.00,weatherlink.com 1.10,2013-01-04 01:39:00,
2013-01-03 20:55:00,29.4,24.0,30.31,WSW,256,9.0,12.0,80,0.00,,,0.00,weatherlink.com 1.10,2013-01-04 01:55:00,
2013-01-03 21:10:00,29.3,24.0,30.31,WSW,251,6.0,15.0,81,0.00,,,0.00,weatherlink.com 1.10,2013-01-04 02:10:00,
2013-01-03 21:25:00,29.0,24.0,30.31,West,265,7.0,14.0,81,0.00,,,0.00,weatherlink.com 1.10,2013-01-04 02:25:00,
2013-01-03 21:41:00,28.4,23.0,30.31,WSW,257,3.0,13.0,80,0.00,,,0.00,weatherlink.com 1.10,2013-01-04 02:41:00,
2013-01-03 21:55:00,27.3,22.0,30.32,WSW,240,6.0,12.0,80,0.00,,,0.00,weatherlink.com 1.10,2013-01-04 02:55:00,
2013-01-03 22:12:00,26.0,21.0,30.31,WSW,254,4.0,10.0,81,0.00,,,0.00,weatherlink.com 1.10,2013-01-04 03:12:00,
2013-01-03 22:27:00,25.2,20.0,30.32,WSW,254,6.0,9.0,81,0.00,,,0.00,weatherlink.com 1.10,2013-01-04 03:27:00,
2013-01-03 22:41:00,24.5,19.0,30.32,WSW,257,4.0,8.0,81,0.00,,,0.00,weatherlink.com 1.10,2013-01-04 03:41:00,
2013-01-03 22:57:00,24.1,19.0,30.32,SW,232,4.0,9.0,82,0.00,,,0.00,weatherlink.com 1.10,2013-01-04 03:57:00,
2013-01-03 23:11:00,23.8,19.0,30.32,SW,232,7.0,9.0,82,0.00,,,0.00,weatherlink.com 1.10,2013-01-04 04:11:00,
2013-01-03 23:27:00,23.4,19.0,30.32,WSW,257,5.0,10.0,82,0.00,,,0.00,weatherlink.com 1.10,2013-01-04 04:27:00,
2013-01-03 23:41:00,23.1,18.0,30.32,West,264,5.0,10.0,81,0.00,,,0.00,weatherlink.com 1.10,2013-01-04 04:41:00,
2013-01-03 23:56:00,22.9,18.0,30.32,WSW,251,6.0,9.0,81,0.00,,,0.00,weatherlink.com 1.10,2013-01-04 04:56:00,